Location: La Brionne
(46.1728°N, 1.7849°E)
Time: 07:53:17
(UTC+00:00)

Cosmos 2322 Rocket - Pass Details

Date: 04 November 2021
Orbit: 832 x 851 km, 71.0° (Epoch: 01 December)

Event Time Altitude Azimuth Distance (km) Brightness Sun altitude
Rises 17:01:28 0° 230° (SW) 3,368 6.8 -5.3°
Reaches altitude 10° 17:04:03 10° 238° (WSW) 2,439 6.2 -5.7°
Maximum altitude 17:09:14 38° 306° (NW) 1,258 3.5 -6.6°
Drops below altitude 10° 17:14:29 10° 14° (NNE) 2,462 4.3 -7.5°
Sets 17:17:07 0° 22° (NNE) 3,403 5.0 -7.9°
